Starlink 37326

operational
NORAD ID: 68543 Int'l Des: 2026-070 Owner: SPXS Country: US Constellation: starlink
LEOCIRCULAR

Starlink 37326について

説明を読み込み中...

リアルタイム位置

3D地球を読み込み中...

次回通過

高度履歴

Altitude vs Time

uPlot chart will show altitude changes over time

軌道要素

1 68543C 26070A 26093.74423611 .01099200 00000+0 13680-2 0 934
2 68543 53.1618 260.4086 0009362 282.5296 109.2994 16.06361380 11
Epoch: Apr 3, 2026 • Age: 32 hours

現在のステータス

高度 264.5 km
速度 7.75 km/s
衛星直下点 47.51°N, 75.89°E
打ち上げ日 Apr 2, 2026
運用期間 1 days
タイプ internet

技術仕様

分類 Payload
質量 575.00 kg
乾燥質量 530.00 kg
総質量 575.00 kg
長さ 0.30 m
直径 4.10 m
スパン 29.00 m
形状 Box + pan
製造者 SPXS
バスタイプ Starlink V2MO
フェーズステータス In Orbit
所有者/国 SPXS/US

大規模コンステレーション

Loading constellations...